Regional Weather Roundup
Issued by NWS

Home | Current Version | Previous Version | Graphics & Text | Print | Product List | Glossary On
Versions: 1 2 3 4 5 6 7 8 9 10 11 12 13 14 15 16 17 18 19 20 21 22 23 24 25 26 27 28 29 30 31 32 33 34 35 36 37 38 39 40 41 42 43 44 45 46 47 48 49 50
218
ASUS43 KMPX 162001
RWRMN
WEATHER ROUNDUP FOR MINNESOTA
NATIONAL WEATHER SERVICE TWIN CITIES/CHANHASSEN MN
200 PM CST SAT DEC 16 2017


NOTE: "FAIR" INDICATES FEW OR NO CLOUDS BELOW 12,000 FEET WITH NO
SIGNIFICANT WEATHER AND/OR OBSTRUCTIONS TO VISIBILITY. N/A MEANS
CURRENT SKY AND/OR WEATHER CONDITIONS ARE NOT AVAILABLE.

MNZ060>063-068>070-162100-
   Twin Cities Metro

CITY           SKY/WX    TMP DP  RH WIND       PRES   REMARKS
TWIN CITIES    CLOUDY    29  25  85 NE3       29.92R
ST PAUL        CLOUDY    29  24  82 CALM      29.93R
CRYSTAL        CLOUDY    29  21  72 NE3       29.91R
BLAINE         CLOUDY    30  25  80 NE7       29.92R WCI  23
LAKEVILLE      CLOUDY    27  27 100 NE6       29.90R WCI  20
EDEN PRAIRIE   CLOUDY    29  24  82 NE6       29.90R WCI  23
SOUTH ST PAUL  CLOUDY    29  23  78 CALM      29.92R
LAKE ELMO      FAIR      30  23  74 E3        29.92R
$$
MNZ001>005-007-008-013>017-022>024-027-028-162100-
   Northwest Minnesota

CITY           SKY/WX    TMP DP  RH WIND       PRES   REMARKS
BEMIDJI        CLOUDY    22  17  81 SE7       29.89R WCI  13
HALLOCK        CLOUDY    21  19  93 SW3       29.90R
ROSEAU         CLOUDY    16  10  79 CALM      29.89S
WARROAD        LGT SNOW  12   9  85 E6        29.90S WCI   3
CROOKSTON      CLOUDY    27  23  86 W9        29.91S WCI  17
FOSSTON        CLOUDY    25  21  86 SW8       29.89R FOG     WCI  16
DETROIT LAKES  CLOUDY    28  27  93 SW5       29.91R WCI  23
MOORHEAD       CLOUDY    28  25  86 CALM      29.93R
PARK RAPIDS    CLOUDY    23  18  81 SE7       29.89R WCI  15
MAHNOMEN       CLOUDY    26  23  88 SW8       29.89R WCI  18
$$
MNZ006-009>011-018-025>026-162100-
   North Central Minnesota

CITY           SKY/WX    TMP DP  RH WIND       PRES   REMARKS
BAUDETTE       CLOUDY     9   6  88 SE9       29.91R FOG     WCI  -4
FLAG ISLAND    LGT SNOW   9   5  85 E5        29.92R VSB 1   WCI   0
INTL FALLS     CLOUDY     8   2  76 E8        29.94S HAZE    WCI  -4
WASKISH        CLOUDY    18  16  93 CALM      29.90R
BIG FORK         N/A     18  14  86 NE3       29.92R
LONGVILLE      CLOUDY    21  12  68 SE6       29.91R WCI  14
GRAND RAPIDS   CLOUDY    20  16  84 SE6       29.94R WCI  12
CRANE LAKE     LGT SNOW  10   7  85 CALM      29.99R
ORR            CLOUDY    14   7  73 E3        29.91R
COOK           CLOUDY    12   9  85 CALM      29.94S
WALKER         CLOUDY    21  14  74 E3        29.90R
$$
MNZ012-019>021-037-162100-
   Northeast Minnesota

CITY           SKY/WX    TMP DP  RH WIND       PRES   REMARKS
DULUTH         CLOUDY    19  14  81 E15       29.93S WCI   5
ELY            FLURRIES  16  12  86 E6        29.94F WCI   7
HIBBING        CLOUDY    19  15  84 SE9       29.93R WCI   8
EVELETH        CLOUDY    20  13  75 SE7       29.94R WCI  11
DULUTH HARBOR  CLOUDY    25  16  68 E14       30.00S WCI  13
TWO HARBORS    CLOUDY    27  18  69 E10       29.96R WCI  17
SILVER BAY     CLOUDY    23  16  74 E9        29.96R WCI  13
GRAND MARAIS     N/A     18  12  77 NE12G17   30.05R WCI   5
G MARAIS ARPRT FLURRIES  10   5  79 NE5       29.96R WCI   2
$$
MNZ029>031-032-039>041-046>048-054>057-064-162100-
   West Central Minnesota

CITY           SKY/WX    TMP DP  RH WIND       PRES   REMARKS
FERGUS FALLS   CLOUDY    28  25  86 CALM      29.94R
WHEATON        CLOUDY    34  28  80 CALM      29.94R
MORRIS         MOSUNNY   32  28  86 CALM      29.91R
ALEXANDRIA     CLOUDY    28  24  85 CALM      29.90R
ELBOW LAKE     CLOUDY    28  25  88 CALM      29.92R FOG
WADENA         CLOUDY    25  19  80 S3        29.90R
GLENWOOD       CLOUDY    27  25  93 N3        29.91R
APPLETON       MOSUNNY   36  28  75 N5        29.91S
BENSON         MOSUNNY   32  27  80 NE3       29.92S
ORTONVILLE     CLOUDY    36  30  80 N7        29.92R
MADISON        PTSUNNY   39  32  75 N12       29.90F
WILLMAR        FAIR      36  28  75 N12       29.90F
$$
MNZ033>034-036-042>043-049>051-058-059-162100-
   Central Minnesota

CITY           SKY/WX    TMP DP  RH WIND       PRES   REMARKS
ST CLOUD       CLOUDY    25  21  85 NE5       29.92R WCI  19
SAUK CENTRE    CLOUDY    26  23  89 CALM      29.92R FOG
PAYNESVILLE    CLOUDY    27  26  94 N5        29.92R WCI  22
AITKIN         CLOUDY    23  14  68 SE3       29.91R
PINE RIVER     CLOUDY    21  14  73 SE5       29.95R WCI  15
BRAINERD       CLOUDY    25  18  74 E3        29.92R
STAPLES        CLOUDY    23  18  80 CALM      29.91R
LITTLE FALLS   CLOUDY    27  19  74 CALM      29.92R
LITCHFIELD     PTSUNNY   30  27  86 N6        29.91R WCI  24
BUFFALO        CLOUDY    27  23  84 N5        29.93R WCI  22
MAPLE LAKE     CLOUDY    29  25  86 NE6       29.92R WCI  23
HUTCHINSON     MOSUNNY   30  27  86 N6        29.90  WCI  24
$$
MNZ037-044-045-052-053-162100-
   East Central Minnesota

CITY           SKY/WX    TMP DP  RH WIND       PRES   REMARKS
PRINCETON      CLOUDY    27  21  80 N5        29.92R WCI  21
MORA           CLOUDY    25  18  74 E6        29.95S WCI  18
CAMBRIDGE      CLOUDY    27  18  69 N5        29.93S WCI  21
RUSH CITY      CLOUDY    26  18  74 N7        29.94R WCI  18
MOOSE LAKE     CLOUDY    23  12  63 E3        29.92S
HINCKLEY       CLOUDY    23  18  80 NE6       29.94S WCI  16
CLOQUET        CLOUDY    19  10  68 E10       29.93S WCI   8
MCGREGOR       CLOUDY    25  14  63 E7        29.92R WCI  17
$$
MNZ071>073-080-081-089-090-097-098-162100-
   Southwest Minnesota

CITY           SKY/WX    TMP DP  RH WIND       PRES   REMARKS
MONTEVIDEO     MOSUNNY   36  28  75 NE10      29.90S
GRANITE FALLS  CLOUDY    38  32  78 NW9       29.91R
CANBY          CLOUDY    39  32  75 NW10      29.90S
MARSHALL       CLOUDY    38  30  73 N14       29.90R
REDWOOD FALLS  MOSUNNY   37  30  75 N7        29.89R
OLIVIA         CLOUDY    34  30  86 N9        29.88S WCI  26
PIPESTONE      PTSUNNY   41  30  65 N8        29.88R
WINDOM           N/A     43  25  49 NW15G21   29.87R
WORTHINGTON    CLOUDY    42  31  64 N15       29.87R
JACKSON        CLOUDY    41  30  65 NW16      29.87R
SLAYTON        MOSUNNY   41  32  69 N12       29.88R
$$
MNZ065>067-074>077-082>085-091>093-162100-
   South Central Minnesota

CITY           SKY/WX    TMP DP  RH WIND       PRES   REMARKS
MANKATO        SUNNY     34  29  82 N10       29.88R WCI  26
NEW ULM        SUNNY     36  28  75 N6        29.88S
ST JAMES       CLOUDY    37  30  75 NW9       29.89R
FAIRMONT       MOSUNNY   42  30  62 N9        29.87R
GLENCOE        CLOUDY    30  30 100 N7        29.90R WCI  23
FARIBAULT      SUNNY     34  28  80 N9        29.88R WCI  26
OWATONNA       SUNNY     36  28  75 NE5       29.86S
WASECA         CLOUDY    36  30  80 NE8       29.87R
$$
MNZ078>079-086>088-094>096-162100-
   Southeast Minnesota

CITY           SKY/WX    TMP DP  RH WIND       PRES   REMARKS
ROCHESTER      SUNNY     36  29  75 NE7       29.85R
RED WING       CLOUDY    28  21  74 E6        29.91R WCI  22
STANTON        CLOUDY    32  27  82 E3        29.89R
DODGE CENTER   CLOUDY    36  28  75 NE6       29.85S
WINONA           N/A     30  25  80 E5        29.92R WCI  25
AUSTIN         MOSUNNY   37  27  65 N5        29.84S
PRESTON        SUNNY     36  26  66 E5        29.86R
$$
ABBREVIATIONS USED IN REMARKS
   TC - TEMPERATURES IN CELSIUS
  WCI - WIND CHILL INDEX
   HX - HEAT INDEX
  VSB - VISIBILITY
$$




USA.gov is the U.S. government's official web portal to all federal, state and local government web resources and services.